Other Public Products
Issued by NWS Grand Forks, ND

Home | Current Version | Previous Version | Graphics & Text | Print | Product List | Glossary On
Versions: 1 2 3 4 5 6 7 8 9 10 11 12 13 14 15 16 17 18 19 20 21 22 23 24 25 26 27 28 29 30 31 32 33 34 35 36 37 38 39 40 41 42 43 44 45 46 47 48 49 50
000
FPUS83 KFGF 261231
OPUFGF
PRAIRIE TO PINES WEATHER ROUNDUP
NATIONAL WEATHER SERVICE EASTERN NORTH DAKOTA/GRAND FORKS ND
700 AM CDT MON JUN 26 2017

 **SATELLITE DATA USED TO AUGMENT SKY COVER AT AUTOMATED STATIONS**
 *****  WEATHER ACROSS EASTERN NORTH DAKOTA  *****

CITY           SKY/WX    TMP DP  RH WIND       PRES   REMARKS
GRAND FORKS    FAIR      49  44  83 W7        30.21S
6HR MIN TEMP:  42; 6HR MAX TEMP:  49;

GRAND FORKS AF FAIR      51  44  78 NW6       30.22R
GRAND CITY NWS NOT AVBL
BUXTON           N/A     52  49  89 W3          N/A
DEVILS LAKE    FAIR      50  47  89 W3        30.25R
6HR MIN TEMP:  40; 6HR MAX TEMP:  50;

FARGO          FAIR      47  42  83 CALM      30.23R
6HR MIN TEMP:  40; 6HR MAX TEMP:  48;

WAHPETON ARPT  FAIR      46  41  81 NW3       30.24R
$$

 *****  WEATHER ACROSS CENTRAL AND WESTERN NORTH DAKOTA  *****

CITY           SKY/WX    TMP DP  RH WIND       PRES   REMARKS
JAMESTOWN      FAIR      46  42  86 CALM      30.25R
6HR MIN TEMP:  41; 6HR MAX TEMP:  47;

BISMARCK       FAIR      41  40  96 CALM      30.28R
6HR MIN TEMP:  40; 6HR MAX TEMP:  50;

MINOT          FAIR      49  39  68 SW8       30.25R
6HR MIN TEMP:  42; 6HR MAX TEMP:  52;

MINOT AFB      FAIR      44  38  78 SW3       30.25R
6HR MIN TEMP:  38; 6HR MAX TEMP:  47;

GARRISON         N/A     42  40  92 CALM      30.26R
6HR MIN TEMP:  38; 6HR MAX TEMP:  50;

WILLISTON      FAIR      49  44  83 NE5       30.24S
6HR MIN TEMP:  44; 6HR MAX TEMP:  55;

DICKINSON      FAIR      45  41  86 SE7       30.24S
6HR MIN TEMP:  41; 6HR MAX TEMP:  49;

HETTINGER      FAIR      46  40  79 NE5       30.27S
6HR MIN TEMP:  36; 6HR MAX TEMP:  54;

$$

 *****  OTHER OBSERVATIONS NORTHEAST NORTH DAKOTA  *****

CITY           SKY/WX    TMP DP  RH WIND       PRES   REMARKS
WALHALLA       NOT AVBL
LANGDON        FAIR      46  46 100 CALM      30.24S
CAVALIER       FAIR      52  45  76 W8        30.21S
GRAFTON        FAIR      54  43  66 W8        30.23S
CANDO          NOT AVBL
FORT TOTTEN      N/A     45  42  89 CALM      29.95S
ROLLA            N/A     50  45  81 W8        30.25S
RUGBY          NOT AVBL
 ***** THE ABOVE OBSERVATIONS ARE NON NWS ARE NOT QUALITY
        CONTROLLED AND MAY MIS-REPORT RAIN FOR SNOW...
$$

 *****  OTHER OBSERVATIONS SOUTHEAST NORTH DAKOTA *****

CITY           SKY/WX    TMP DP  RH WIND       PRES   REMARKS
COOPERSTOWN    FAIR      48  45  87 MISG      30.26R
VALLEY CITY    FAIR      48  48 100 CALM      30.26S
OAKES          NOT AVBL
GWINNER        CLOUDY    50  46  87 CALM      30.25R
SHEYENNE NWR     N/A     46  44  92 CALM      29.95S
BUFFALO          N/A     49  42  77 W2          N/A
WYNDMERE       NOT AVBL
 ***** THE ABOVE OBSERVATIONS ARE NON NWS ARE NOT QUALITY
       CONTROLLED AND MAY MIS-REPORT RAIN FOR SNOW...
$$

  *****  WEATHER ACROSS NORTHERN MINNESOTA  *****

CITY           SKY/WX    TMP DP  RH WIND       PRES   REMARKS
FLAG ISLAND    PTSUNNY   50  45  81 W13       30.13S
WARROAD        FAIR      48  45  87 W6        30.17S
ROSEAU         FAIR      48  45  87 W7        30.18S
HALLOCK        FAIR      46  45  93 CALM      30.20S
THF RVR FALLS  FAIR      49  44  83 NW7       30.21S
6HR MIN TEMP:  42; 6HR MAX TEMP:  49;

HALSTAD          N/A     49  43  79 W3          N/A
FOSSTON        FAIR      46  45  93 CALM      30.21S
BAUDETTE       FAIR      48  46  93 W8        30.15S
6HR MIN TEMP:  43; 6HR MAX TEMP:  48;

WASKISH        CLOUDY    52  46  82 NW8       30.17R
CROOKSTON      FAIR      48  45  87 CALM      30.23R
$$
  *****  WEATHER ACROSS CENTRAL AND WEST MINNESOTA  *****

CITY           SKY/WX    TMP DP  RH WIND       PRES   REMARKS
BEMIDJI        FAIR      47  43  87 NW6       30.19R
PARK RAPIDS    FAIR      46  42  86 CALM      30.20R
6HR MIN TEMP:  38; 6HR MAX TEMP:  46;

WADENA         FAIR      46  45  93 CALM      30.21R
DETROIT LAKES  FAIR      50  45  81 NW6       30.23R
MOORHEAD       FAIR      48  43  81 CALM      30.24R
FERGUS FALLS   FAIR      48  46  93 CALM      30.22R
ELBOW LAKE     FAIR      49  47  93 CALM      30.23R
6HR MIN TEMP:  44; 6HR MAX TEMP:  51;

MORRIS MN      FAIR      48  46  93 NW6       30.22R
STAPLES        FAIR      46  45  93 W5        30.20S
WHEATON        FAIR      50  45  81 W3        30.26R
$$
  *****  WEATHER ELSEWHERE ACROSS MINNESOTA  *****

CITY           SKY/WX    TMP DP  RH WIND       PRES   REMARKS
DULUTH         FAIR      45  43  93 NW7       30.11S
6HR MIN TEMP:  42; 6HR MAX TEMP:  45;

INTRNTL FALLS  PTSUNNY   48  45  89 W5        30.13R
6HR MIN TEMP:  41; 6HR MAX TEMP:  48;

ELY            FAIR      48  46  93 CALM      30.11R
CLOQUET        FAIR      48  45  87 NW7       30.13S
BRAINERD       FAIR      50  44  80 NW7       30.19R
6HR MIN TEMP:  46; 6HR MAX TEMP:  50;

HIBBING        FAIR      45  44  97 NW8       30.13R
6HR MIN TEMP:  35; 6HR MAX TEMP:  45;

ALEXANDRIA     FAIR      51  48  89 N5        30.23R
6HR MIN TEMP:  46; 6HR MAX TEMP:  53;

SAINT CLOUD    FAIR      48  46  93 NW5       30.19R
6HR MIN TEMP:  42; 6HR MAX TEMP:  49;

MINNEAPOLIS    FAIR      54  45  71 N5        30.17R
6HR MIN TEMP:  50; 6HR MAX TEMP:  57;

$$

  *****  WEATHER ACROSS SOUTH DAKOTA  *****

CITY           SKY/WX    TMP DP  RH WIND       PRES   REMARKS
SIOUX FALLS    FAIR      53  52  96 CALM      30.22R
6HR MIN TEMP:  48; 6HR MAX TEMP:  56; 6HR PCP:  0.02;

BROOKINGS      FAIR      45  45 100 CALM      30.23R
WATERTOWN      FAIR      45  43  93 CALM      30.23R
6HR MIN TEMP:  42; 6HR MAX TEMP:  48;

HURON          FAIR      47  46  97 NW3       30.24R
6HR MIN TEMP:  43; 6HR MAX TEMP:  54;

SISSETON         N/A     48  42  80 NW3       30.23R
ABERDEEN       FAIR      46  43  89 NW5       30.26R
6HR MIN TEMP:  39; 6HR MAX TEMP:  49;

MITCHELL       FAIR      50  49  96 CALM      30.24R
PIERRE         FAIR      48  44  86 E8        30.23R
6HR MIN TEMP:  45; 6HR MAX TEMP:  50;

MOBRIDGE       FAIR      46  40  79 CALM      30.25R
RAPID CITY     FAIR      47  38  71 W3        30.26R
6HR MIN TEMP:  42; 6HR MAX TEMP:  55;

$$

  *****  SOME WEATHER IN NEARBY STATES *****

CITY           SKY/WX    TMP DP  RH WIND       PRES   REMARKS
GLASGOW MT     FAIR      53  40  61 E14       30.15S
6HR MIN TEMP:  52; 6HR MAX TEMP:  59;

GREAT FALLS MT FAIR      58  39  49 S7        30.05F
6HR MIN TEMP:  53; 6HR MAX TEMP:  66;

CHEYENNE WY    FAIR      51  46  83 NW5       30.33R
6HR MIN TEMP:  50; 6HR MAX TEMP:  55;

SCOTTSBLUFF NE FAIR      54  46  74 NE10      30.24R
6HR MIN TEMP:  54; 6HR MAX TEMP:  64;

OMAHA NE       PTSUNNY   58  51  78 E8        30.18F THUNDER
6HR MIN TEMP:  56; 6HR MAX TEMP:  63; 6HR PCP:  0.10;

DES MOINES IA  RAIN      56  54  93 W5        30.25R FOG
6HR MIN TEMP:  56; 6HR MAX TEMP:  61; 6HR PCP:  0.08;

DAVENPORT IA   LGT RAIN  54  48  80 W8G18     30.17S
6HR MIN TEMP:  49; 6HR MAX TEMP:  54; 6HR PCP: TRACE;

CHICAGO IL     PTSUNNY   58  48  69 W9        30.11S
6HR MIN TEMP:  54; 6HR MAX TEMP:  59;

EAU CLAIRE WI  FAIR      49  45  86 W6        30.13S
6HR MIN TEMP:  43; 6HR MAX TEMP:  49;

LA CROSSE WI   FAIR      58  50  75 N6        30.14R
6HR MIN TEMP:  52; 6HR MAX TEMP:  58;

$$

  *****  SOME NATIONAL WEATHER *****

CITY           SKY/WX    TMP DP  RH WIND       PRES   REMARKS
LA GUARDIA NY  FAIR      69  53  56 NW9       30.03R



USA.gov is the U.S. government's official web portal to all federal, state and local government web resources and services.